Lebanon, NH

6:36 AM EDT on October 21, 2019 (GMT -0400)
Lebanon Municipal

Weather History for KLEB - September, 2019

Change the Weather History Date:

Saturday, September 21, 2019

  Actual Average Record
Temperature  
Mean Temperature 65 °F -  
Max Temperature 84 °F 69 °F 88 °F (1965)
Min Temperature 46 °F 48 °F 28 °F (1929)
Growing Degree Days 15 (Base 50)    
Moisture  
Dew Point 51 °F    
Average Humidity 77    
Maximum Humidity 88    
Minimum Humidity 40    
Precipitation  
Precipitation 0.00 in - - ()
Sea Level Pressure  
Sea Level Pressure 30.18 in    
Wind  
Wind Speed 0 mph (WNW)    
Max Wind Speed 4 mph    
Max Gust Speed -    
Visibility 6 miles    
Events Fog    
Averages and records for this station are not official NWS values.
T = Trace of Precipitation, MM = Missing Value Source: NWS Daily Summary

Daily Weather History Graph

Daily Weather History Graph

Search for Another Location

Airport or City:

Astronomy

Sep. 21, 2019 Rise Set
Actual Time 6:35 AM EDT 6:48 PM EDT
Civil Twilight 6:06 AM EDT 7:17 PM EDT
Nautical Twilight 5:32 AM EDT 7:51 PM EDT
Astronomical Twilight 4:58 AM EDT 8:25 PM EDT
Moon 11:11 PM EDT 1:50 PM EDT
Length of Visible Light 13h 11m
Length of Day
12h 13m
Waning Gibbous, 55% of the Moon is Illuminated
Sep 21
Waning Gibbous
Sep 21
Last Quarter
Sep 28
New
Oct 5
First Quarter
Oct 13
Full

Hourly Weather History & Observations

Time (EDT) Temp. Heat Index Dew Point Humidity Pressure Visibility Wind Dir Wind Speed Gust Speed Precip Events Conditions
12:53 AM 51.1 °F - 46.9 °F 86% 30.17 in 10.0 mi Calm Calm - N/A   Clear
1:53 AM 50.0 °F - 46.0 °F 86% 30.17 in 8.0 mi Calm Calm - N/A   Clear
2:53 AM 48.9 °F - 44.1 °F 83% 30.17 in 8.0 mi Calm Calm - N/A   Clear
3:53 AM 50.0 °F - 44.1 °F 80% 30.17 in 10.0 mi Calm Calm - N/A   Clear
4:02 AM 48.0 °F - 44.1 °F 86% 30.19 in 1.8 mi Calm Calm - N/A   Clear
4:09 AM 48.0 °F - 44.1 °F 86% 30.19 in 3.0 mi Calm Calm - N/A   Clear
4:53 AM 46.9 °F - 43.0 °F 86% 30.18 in 7.0 mi Calm Calm - N/A   Clear
5:38 AM 48.0 °F - 43.0 °F 83% 30.20 in 9.0 mi Calm Calm - N/A   Scattered Clouds
5:53 AM 46.0 °F - 41.0 °F 83% 30.20 in 2.0 mi Calm Calm - N/A   Haze
6:08 AM 46.9 °F - 43.0 °F 86% 30.21 in 2.0 mi Calm Calm - N/A   Mostly Cloudy
6:29 AM 48.0 °F - 44.1 °F 86% 30.22 in 6.0 mi Calm Calm - N/A   Scattered Clouds
6:53 AM 46.9 °F - 43.0 °F 86% 30.23 in 2.0 mi Calm Calm - N/A   Mostly Cloudy
7:00 AM 46.9 °F - 43.0 °F 86% 30.23 in 8.0 mi Calm Calm - N/A   Scattered Clouds
7:03 AM 46.9 °F - 43.0 °F 86% 30.23 in 1.5 mi Calm Calm - N/A   Mostly Cloudy
7:53 AM 51.1 °F - 46.9 °F 86% 30.24 in 1.2 mi Calm Calm - N/A   Overcast
8:11 AM 52.0 °F - 48.0 °F 86% 30.25 in 3.0 mi Calm Calm - N/A   Scattered Clouds
8:53 AM 55.9 °F - 50.0 °F 80% 30.25 in 10.0 mi Calm Calm - N/A   Clear
9:53 AM 62.1 °F - 52.0 °F 70% 30.24 in 10.0 mi Calm Calm - N/A   Clear
10:53 AM 69.1 °F - 54.0 °F 58% 30.23 in 10.0 mi WNW 3.5 mph - N/A   Clear
11:53 AM 73.9 °F - 55.0 °F 52% 30.20 in 10.0 mi Calm Calm - N/A   Clear
12:53 PM 78.1 °F - 57.9 °F 50% 30.17 in 10.0 mi Calm Calm - N/A   Clear
1:53 PM 80.1 °F 80.6 °F 57.9 °F 47% 30.15 in 10.0 mi Variable 3.5 mph - N/A   Clear
2:53 PM 84.0 °F 83.3 °F 57.0 °F 40% 30.13 in 10.0 mi North 3.5 mph - N/A   Clear
3:53 PM 82.0 °F 81.6 °F 55.9 °F 41% 30.12 in 10.0 mi SW 3.5 mph - N/A   Clear
4:53 PM 84.0 °F 83.3 °F 57.0 °F 40% 30.12 in 10.0 mi Calm Calm - N/A   Clear
5:53 PM 77.0 °F - 63.0 °F 62% 30.12 in 10.0 mi Calm Calm - N/A   Clear
6:53 PM 68.0 °F - 61.0 °F 78% 30.13 in 10.0 mi Calm Calm - N/A   Clear
7:53 PM 64.0 °F - 57.9 °F 80% 30.14 in 10.0 mi Calm Calm - N/A   Clear
8:53 PM 62.1 °F - 57.0 °F 84% 30.15 in 10.0 mi Calm Calm - N/A   Clear
9:53 PM 60.1 °F - 55.0 °F 83% 30.15 in 9.0 mi Calm Calm - N/A   Clear
10:43 PM 57.9 °F - 54.0 °F 87% 30.17 in 1.2 mi Calm Calm - N/A   Clear
10:51 PM 57.2 °F - 53.6 °F 88% 30.17 in 0.8 mi Calm Calm - N/A   Clear
10:53 PM 57.9 °F - 54.0 °F 87% 30.16 in 1.2 mi Calm Calm - N/A   Clear
11:16 PM 57.0 °F - 53.1 °F 87% 30.17 in 4.0 mi Calm Calm - N/A   Partly Cloudy
11:35 PM 57.0 °F - 53.1 °F 87% 30.17 in 1.2 mi Calm Calm - N/A   Partly Cloudy
11:38 PM 57.0 °F - 53.1 °F 87% 30.16 in 0.8 mi Calm Calm - N/A   Mist
11:53 PM 55.9 °F - 52.0 °F 87% 30.15 in 0.5 mi Calm Calm - N/A Fog Fog
11:59 PM 57.9 °F - 53.1 °F 84% 30.17 in 1.2 mi Calm Calm - N/A   Haze